Total_Precipitation_Accumulation
1.54 1.67 1.60 1.48 1.40 1.43 1.32 1.13 0.97 0.99 0.97 0.82 0.69 0.68 0.71 0.74 0.72 0.76 0.89 0.83 0.84 1.01 1.28 1.41 1.46 1.35 1.29 1.27 1.23 1.14 1.01 0.90 0.83 0.72 0.59 0.51 0.48 0.48 0.49 0.50 0.50 0.48 0.47
1.93 2.04 2.02 1.86 1.69 1.72 1.63 1.48 1.34 1.34 1.24 1.17 1.07 0.95 0.86 0.95 0.94 0.90 1.03 1.06 1.01 1.06 1.33 1.64 1.77 1.69 1.59 1.53 1.41 1.29 1.22 1.15 1.08 1.00 0.89 0.75 0.66 0.61 0.61 0.59 0.59 0.57 0.51
2.31 2.30 2.30 2.12 1.97 1.97 2.00 1.91 1.77 1.68 1.46 1.33 1.26 1.19 1.12 1.05 1.06 1.08 1.28 1.51 1.40 1.36 1.44 1.51 1.60 1.69 1.76 1.83 1.78 1.64 1.54 1.41 1.31 1.25 1.18 1.07 0.95 0.84 0.77 0.73 0.71 0.68 0.63
2.47 2.57 2.54 2.41 2.25 2.13 2.27 2.36 2.23 2.09 1.88 1.77 1.69 1.55 1.36 1.31 1.33 1.47 1.58 1.74 1.86 1.75 1.71 1.55 1.44 1.51 1.71 1.89 1.95 1.92 1.76 1.58 1.46 1.44 1.39 1.31 1.17 1.07 0.96 0.92 0.89 0.83 0.76
2.87 2.87 2.79 2.76 2.71 2.69 2.68 2.53 2.51 2.35 2.32 2.19 1.86 1.76 1.57 1.51 1.56 1.59 1.71 1.77 1.86 1.83 1.78 1.60 1.45 1.43 1.57 1.84 1.96 2.07 2.03 1.91 1.78 1.62 1.49 1.45 1.38 1.27 1.10 1.02 0.99 0.95 0.89
3.34 3.40 3.32 3.24 3.19 3.12 2.95 2.88 2.82 2.61 2.44 2.31 1.98 1.80 1.64 1.57 1.53 1.55 1.57 1.53 1.50 1.47 1.47 1.49 1.56 1.46 1.51 1.62 1.67 1.82 1.99 2.06 1.90 1.76 1.68 1.61 1.51 1.36 1.19 1.10 1.04 1.02 1.01
4.00 3.98 3.82 3.56 3.40 3.39 3.29 3.20 3.00 2.82 2.57 2.36 2.27 2.01 1.67 1.46 1.41 1.31 1.29 1.28 1.27 1.29 1.33 1.36 1.37 1.34 1.34 1.43 1.43 1.53 1.68 1.83 1.84 1.84 1.81 1.72 1.62 1.47 1.35 1.25 1.18 1.13 1.10
4.26 4.23 4.23 4.12 3.86 3.67 3.45 3.21 3.08 2.94 2.59 2.36 2.29 2.23 1.91 1.60 1.31 1.10 1.02 1.02 1.05 1.13 1.16 1.15 1.18 1.21 1.24 1.32 1.41 1.55 1.61 1.65 1.72 1.77 1.73 1.67 1.61 1.59 1.58 1.51 1.43 1.36 1.28
4.57 4.42 4.26 4.01 3.79 3.63 3.50 3.27 3.04 2.91 2.63 2.39 2.26 2.29 2.11 1.83 1.45 1.20 1.01 0.94 0.91 0.94 0.99 1.01 1.04 1.08 1.10 1.18 1.25 1.43 1.54 1.55 1.60 1.64 1.66 1.64 1.60 1.59 1.61 1.61 1.58 1.56 1.51
4.20 3.94 3.78 3.67 3.47 3.17 2.95 2.82 2.67 2.46 2.29 2.14 2.08 1.95 1.82 1.67 1.63 1.52 1.32 1.17 1.10 1.09 1.08 1.01 1.01 1.06 1.08 1.15 1.32 1.42 1.45 1.46 1.58 1.58 1.55 1.56 1.58 1.61 1.63 1.65 1.64 1.66 1.69
3.59 3.33 3.18 2.98 2.74 2.40 2.07 1.97 2.02 2.04 1.97 1.87 1.84 1.81 1.77 1.65 1.56 1.52 1.48 1.36 1.30 1.25 1.24 1.24 1.22 1.20 1.18 1.19 1.26 1.44 1.42 1.30 1.38 1.45 1.51 1.54 1.55 1.57 1.60 1.61 1.61 1.59 1.60
3.01 2.64 2.33 2.03 1.81 1.65 1.46 1.39 1.41 1.48 1.63 1.67 1.69 1.68 1.64 1.61 1.60 1.59 1.53 1.47 1.43 1.35 1.27 1.25 1.26 1.24 1.22 1.21 1.26 1.40 1.23 1.16 1.12 1.16 1.25 1.29 1.29 1.29 1.34 1.42 1.52 1.58 1.66
2.31 2.03 1.76 1.58 1.42 1.32 1.24 1.15 1.11 1.12 1.21 1.33 1.42 1.47 1.52 1.54 1.53 1.56 1.66 1.69 1.57 1.46 1.35 1.30 1.25 1.22 1.22 1.21 1.23 1.31 1.17 1.10 1.03 0.99 0.97 0.98 0.99 1.01 1.08 1.19 1.28 1.36 1.42
1.70 1.44 1.22 1.08 1.00 0.99 0.96 0.94 0.93 0.94 0.97 1.04 1.14 1.25 1.32 1.36 1.38 1.38 1.41 1.47 1.57 1.54 1.39 1.30 1.21 1.13 1.06 0.97 1.01 1.01 0.91 0.96 0.88 0.83 0.81 0.79 0.78 0.76 0.77 0.78 0.80 0.84 0.88
1.09 0.94 0.81 0.74 0.69 0.68 0.69 0.68 0.68 0.72 0.78 0.83 0.87 0.94 1.03 1.10 1.14 1.16 1.21 1.24 1.33 1.40 1.31 1.15 1.08 1.01 0.86 0.75 0.80 0.64 0.62 0.69 0.64 0.60 0.58 0.58 0.58 0.56 0.54 0.55 0.57 0.61 0.63
0.75 0.67 0.58 0.52 0.48 0.45 0.44 0.44 0.46 0.48 0.52 0.59 0.64 0.69 0.79 0.86 0.93 0.97 1.04 1.08 1.08 1.10 1.12 0.99 0.87 0.81 0.71 0.61 0.63 0.50 0.49 0.53 0.48 0.46 0.47 0.48 0.50 0.52 0.51 0.49 0.49 0.51 0.54
0.51 0.44 0.37 0.34 0.33 0.31 0.31 0.35 0.40 0.44 0.46 0.47 0.48 0.52 0.57 0.61 0.69 0.72 0.72 0.76 0.82 0.84 0.87 0.82 0.74 0.66 0.61 0.57 0.56 0.53 0.49 0.46 0.43 0.46 0.44 0.44 0.44 0.45 0.44 0.44 0.44 0.47 0.49
0.37 0.32 0.28 0.26 0.27 0.28 0.27 0.28 0.30 0.36 0.42 0.41 0.39 0.41 0.43 0.46 0.52 0.54 0.57 0.61 0.67 0.73 0.75 0.79 0.75 0.68 0.63 0.58 0.55 0.55 0.43 0.36 0.36 0.41 0.38 0.34 0.33 0.34 0.35 0.35 0.35 0.34 0.34
0.33 0.30 0.27 0.27 0.24 0.23 0.23 0.23 0.24 0.28 0.35 0.38 0.36 0.36 0.37 0.38 0.39 0.38 0.43 0.49 0.56 0.64 0.73 0.75 0.71 0.64 0.58 0.52 0.52 0.46 0.41 0.46 0.35 0.33 0.30 0.26 0.25 0.24 0.24 0.24 0.24 0.23 0.22
0.25 0.23 0.22 0.22 0.21 0.18 0.18 0.19 0.20 0.24 0.29 0.32 0.29 0.28 0.28 0.28 0.30 0.33 0.36 0.43 0.52 0.65 0.71 0.70 0.63 0.55 0.52 0.48 0.53 0.51 0.47 0.47 0.39 0.27 0.25 0.22 0.22 0.20 0.20 0.20 0.19 0.18 0.16
0.22 0.18 0.16 0.16 0.13 0.12 0.11 0.11 0.15 0.20 0.25 0.26 0.24 0.23 0.21 0.20 0.22 0.26 0.30 0.37 0.48 0.62 0.66 0.65 0.60 0.55 0.51 0.52 0.51 0.48 0.49 0.45 0.38 0.29 0.30 0.27 0.27 0.32 0.35 0.30 0.24 0.21 0.16
0.18 0.15 0.14 0.15 0.13 0.09 0.09 0.09 0.11 0.15 0.20 0.24 0.24 0.22 0.19 0.17 0.17 0.21 0.27 0.34 0.43 0.51 0.58 0.62 0.60 0.59 0.54 0.53 0.54 0.53 0.56 0.54 0.50 0.35 0.37 0.31 0.27 0.38 0.42 0.39 0.33 0.23 0.16
0.22 0.20 0.20 0.20 0.20 0.13 0.07 0.05 0.07 0.14 0.19 0.21 0.22 0.23 0.20 0.17 0.22 0.26 0.26 0.26 0.29 0.30 0.40 0.56 0.64 0.62 0.62 0.64 0.70 0.68 0.64 0.63 0.58 0.45 0.52 0.50 0.38 0.44 0.35 0.33 0.37 0.31 0.24
0.25 0.25 0.26 0.26 0.25 0.14 0.07 0.05 0.07 0.15 0.20 0.18 0.18 0.21 0.27 0.27 0.23 0.23 0.23 0.26 0.31 0.35 0.38 0.46 0.61 0.63 0.59 0.62 0.68 0.71 0.69 0.66 0.62 0.58 0.63 0.65 0.46 0.44 0.38 0.54 0.56 0.48 0.37
0.27 0.27 0.29 0.31 0.28 0.18 0.09 0.07 0.10 0.18 0.20 0.18 0.15 0.15 0.16 0.19 0.17 0.20 0.26 0.37 0.41 0.45 0.36 0.45 0.55 0.61 0.62 0.64 0.64 0.67 0.76 0.82 0.77 0.65 0.60 0.64 0.57 0.48 0.51 0.71 0.68 0.67 0.55
0.26 0.23 0.27 0.34 0.30 0.20 0.10 0.09 0.13 0.18 0.22 0.23 0.23 0.22 0.17 0.14 0.16 0.18 0.25 0.36 0.45 0.46 0.52 0.71 0.84 0.84 0.79 0.75 0.69 0.73 0.83 0.85 0.85 0.83 0.65 0.65 0.72 0.64 0.67 0.75 0.81 0.76 0.70